• în Republica Moldova
  • Lista ţărilor
  • Pe 7 zile
  • Temperatura apei
  • Hartă satelitară
  • Meteo pe hartă
  • Widget-uri
  • user-avatar
    Intrare

    Meteo pe oră la Mulicy

    Astăzi, 23 Octombrie, Marţi

    Timp Temperatura Precipitaţii Vânt Presiune Umiditate
    00:00 +4°C° 0 mm 4 m/s 753 mmHg 87%
    01:00 +4°C° 0 mm 4 m/s 753 mmHg 87%
    02:00 +3°C° 0 mm 3 m/s 752 mmHg 91%
    03:00 +3°C° 0 mm 3 m/s 752 mmHg 91%
    04:00 +3°C° 0 mm 3 m/s 751 mmHg 92%
    05:00 +3°C° 0 mm 4 m/s 750 mmHg 92%
    06:00 +3°C° 0 mm 4 m/s 750 mmHg 92%
    07:00 +3°C° 0 mm 4 m/s 749 mmHg 91%
    08:00 +1°C° 0 mm 4 m/s 748 mmHg 91%
    09:00 +2°C° 0 mm 5 m/s 747 mmHg 87%
    10:00 +3°C° 0 mm 5 m/s 746 mmHg 83%
    11:00 +5°C° 0 mm 5 m/s 745 mmHg 79%
    12:00 +5°C° 0 mm 5 m/s 744 mmHg 78%
    13:00 +5°C° 0 mm 6 m/s 743 mmHg 77%
    14:00 +5°C° 0 mm 6 m/s 741 mmHg 76%
    15:00 +5°C° 0.3 mm 6 m/s 740 mmHg 76%
    16:00 +4°C° 0.3 mm 6 m/s 739 mmHg 77%
    17:00 +4°C° 0.3 mm 6 m/s 738 mmHg 78%
    18:00 +4°C° 0.5 mm 6 m/s 737 mmHg 79%
    19:00 +4°C° 0.5 mm 6 m/s 735 mmHg 81%
    20:00 +3°C° 0.5 mm 6 m/s 734 mmHg 82%
    21:00 +3°C° 0.7 mm 6 m/s 734 mmHg 83%
    22:00 +3°C° 0.7 mm 6 m/s 733 mmHg 84%
    23:00 +3°C° 0.7 mm 5 m/s 732 mmHg 86%

    Mâine, 24 Octombrie, Miercuri

    Timp Temperatura Precipitaţii Vânt Presiune Umiditate
    00:00 +3°C° 0.6 mm 5 m/s 732 mmHg 87%
    01:00 +3°C° 0.6 mm 5 m/s 731 mmHg 88%
    02:00 +4°C° 0.6 mm 4 m/s 731 mmHg 89%
    03:00 +4°C° 0.6 mm 4 m/s 730 mmHg 90%
    04:00 +4°C° 0.6 mm 4 m/s 730 mmHg 90%
    05:00 +4°C° 0.6 mm 3 m/s 730 mmHg 91%
    06:00 +4°C° 0.5 mm 3 m/s 730 mmHg 91%
    07:00 +4°C° 0.5 mm 3 m/s 731 mmHg 91%
    08:00 +4°C° 0.5 mm 3 m/s 731 mmHg 91%
    09:00 +4°C° 0.5 mm 4 m/s 732 mmHg 90%
    10:00 +4°C° 0.5 mm 4 m/s 733 mmHg 89%
    11:00 +5°C° 0.5 mm 4 m/s 733 mmHg 88%
    12:00 +5°C° 0.4 mm 5 m/s 734 mmHg 86%
    13:00 +5°C° 0.4 mm 5 m/s 735 mmHg 85%
    14:00 +5°C° 0.4 mm 5 m/s 735 mmHg 84%
    15:00 +5°C° 0.3 mm 5 m/s 736 mmHg 84%
    16:00 +3°C° 0.3 mm 5 m/s 737 mmHg 84%
    17:00 +3°C° 0.3 mm 5 m/s 738 mmHg 84%
    18:00 +3°C° 0.2 mm 5 m/s 739 mmHg 84%
    19:00 +3°C° 0.2 mm 5 m/s 739 mmHg 84%
    20:00 +2°C° 0.2 mm 5 m/s 740 mmHg 83%
    21:00 +3°C° 0 mm 4 m/s 740 mmHg 85%
    22:00 +3°C° 0 mm 4 m/s 741 mmHg 86%
    23:00 +1°C° 0 mm 4 m/s 741 mmHg 87%

    Poimâine, 25 Octombrie, Joi

    Timp Temperatura Precipitaţii Vânt Presiune Umiditate
    00:00 +1°C° 0 mm 4 m/s 741 mmHg 89%
    01:00 +1°C° 0 mm 4 m/s 742 mmHg 90%
    02:00 +2°C° 0 mm 3 m/s 742 mmHg 91%
    03:00 +2°C° 0 mm 3 m/s 742 mmHg 92%
    04:00 +1°C° 0 mm 3 m/s 742 mmHg 93%
    05:00 +1°C° 0 mm 3 m/s 742 mmHg 93%
    06:00 +1°C° 0.1 mm 3 m/s 741 mmHg 93%
    07:00 +2°C° 0.1 mm 3 m/s 741 mmHg 92%
    08:00 +2°C° 0.1 mm 3 m/s 741 mmHg 91%
    09:00 +3°C° 0 mm 3 m/s 741 mmHg 85%
    10:00 +3°C° 0 mm 3 m/s 741 mmHg 79%
    11:00 +4°C° 0 mm 4 m/s 741 mmHg 73%
    12:00 +5°C° 0 mm 3 m/s 740 mmHg 71%
    13:00 +5°C° 0 mm 3 m/s 740 mmHg 69%
    14:00 +5°C° 0 mm 3 m/s 740 mmHg 68%
    15:00 +4°C° 0 mm 3 m/s 740 mmHg 73%
    16:00 +4°C° 0 mm 2 m/s 740 mmHg 79%
    17:00 +3°C° 0 mm 2 m/s 740 mmHg 85%
    18:00 +3°C° 0 mm 2 m/s 740 mmHg 87%
    19:00 +2°C° 0 mm 2 m/s 740 mmHg 89%
    20:00 +2°C° 0 mm 2 m/s 740 mmHg 91%
    21:00 +2°C° 0 mm 2 m/s 740 mmHg 91%
    22:00 +2°C° 0 mm 2 m/s 740 mmHg 92%
    23:00 +1°C° 0 mm 3 m/s 740 mmHg 92%

    26 Octombrie, Vineri

    Timp Temperatura Precipitaţii Vânt Presiune Umiditate
    00:00 +1°C° 0 mm 3 m/s 740 mmHg 92%
    01:00 0°C° 0 mm 3 m/s 740 mmHg 93%
    02:00 0°C° 0 mm 3 m/s 741 mmHg 93%
    03:00 0°C° 0 mm 3 m/s 741 mmHg 94%
    04:00 0°C° 0 mm 3 m/s 741 mmHg 94%
    05:00 0°C° 0 mm 3 m/s 741 mmHg 94%
    06:00 0°C° 0 mm 3 m/s 741 mmHg 93%
    07:00 0°C° 0 mm 3 m/s 741 mmHg 93%
    08:00 +1°C° 0 mm 3 m/s 741 mmHg 92%
    09:00 +1°C° 0 mm 4 m/s 742 mmHg 87%
    10:00 +3°C° 0 mm 4 m/s 742 mmHg 83%
    11:00 +4°C° 0 mm 4 m/s 742 mmHg 78%
    12:00 +4°C° 0.1 mm 4 m/s 742 mmHg 75%
    13:00 +4°C° 0.1 mm 4 m/s 743 mmHg 72%
    14:00 +5°C° 0.1 mm 4 m/s 743 mmHg 69%
    15:00 +4°C° 0 mm 4 m/s 743 mmHg 74%
    16:00 +3°C° 0 mm 3 m/s 743 mmHg 79%
    17:00 +2°C° 0 mm 3 m/s 744 mmHg 85%
    18:00 +2°C° 0 mm 3 m/s 744 mmHg 87%
    19:00 +2°C° 0 mm 2 m/s 744 mmHg 89%
    20:00 +2°C° 0 mm 2 m/s 744 mmHg 92%
    21:00 +2°C° 0 mm 2 m/s 744 mmHg 93%
    22:00 +2°C° 0 mm 2 m/s 744 mmHg 93%
    23:00 +1°C° 0 mm 2 m/s 744 mmHg 94%

    27 Octombrie, Sâmbătă

    Timp Temperatura Precipitaţii Vânt Presiune Umiditate
    00:00 +2°C° 0.1 mm 2 m/s 743 mmHg 93%
    01:00 +2°C° 0.1 mm 2 m/s 742 mmHg 91%
    02:00 +1°C° 0.1 mm 3 m/s 741 mmHg 90%
    03:00 +1°C° 1.1 mm 3 m/s 740 mmHg 90%
    04:00 +1°C° 1.1 mm 4 m/s 739 mmHg 89%
    05:00 +1°C° 1.1 mm 5 m/s 738 mmHg 89%
    06:00 +1°C° 1.3 mm 5 m/s 737 mmHg 90%
    07:00 +1°C° 1.3 mm 5 m/s 737 mmHg 91%
    08:00 +2°C° 1.3 mm 5 m/s 736 mmHg 92%
    09:00 +2°C° 1.2 mm 5 m/s 736 mmHg 92%
    10:00 +4°C° 1.2 mm 4 m/s 736 mmHg 91%
    11:00 +4°C° 1.2 mm 3 m/s 735 mmHg 91%
    12:00 +4°C° 0.5 mm 3 m/s 736 mmHg 89%
    13:00 +4°C° 0.5 mm 3 m/s 736 mmHg 87%
    14:00 +6°C° 0.5 mm 2 m/s 736 mmHg 86%
    15:00 +4°C° 0.2 mm 3 m/s 737 mmHg 87%
    16:00 +4°C° 0.2 mm 3 m/s 738 mmHg 89%
    17:00 +3°C° 0.2 mm 3 m/s 738 mmHg 90%
    18:00 +3°C° 0.2 mm 4 m/s 739 mmHg 90%
    19:00 +1°C° 0.2 mm 4 m/s 740 mmHg 90%
    20:00 +1°C° 0.2 mm 5 m/s 741 mmHg 90%
    21:00 +1°C° 0.2 mm 4 m/s 743 mmHg 89%
    22:00 +1°C° 0.2 mm 4 m/s 744 mmHg 89%
    23:00 0°C° 0.2 mm 4 m/s 745 mmHg 88%

    28 Octombrie, Duminică

    Timp Temperatura Precipitaţii Vânt Presiune Umiditate
    00:00 0°C° 0.2 mm 4 m/s 747 mmHg 89%
    01:00 +1°C° 0.2 mm 3 m/s 748 mmHg 91%
    02:00 +1°C° 0.2 mm 3 m/s 749 mmHg 92%
    03:00 +1°C° 0.3 mm 3 m/s 750 mmHg 93%
    04:00 +1°C° 0.3 mm 3 m/s 750 mmHg 93%
    05:00 +1°C° 0.3 mm 3 m/s 751 mmHg 93%
    06:00 +1°C° 0.1 mm 3 m/s 752 mmHg 93%
    07:00 0°C° 0.1 mm 3 m/s 753 mmHg 92%
    08:00 0°C° 0.1 mm 3 m/s 753 mmHg 92%
    09:00 +1°C° 0 mm 3 m/s 754 mmHg 88%
    10:00 +1°C° 0 mm 3 m/s 755 mmHg 84%
    11:00 +2°C° 0 mm 3 m/s 755 mmHg 81%
    12:00 +2°C° 0 mm 3 m/s 756 mmHg 79%
    13:00 +3°C° 0 mm 3 m/s 756 mmHg 78%
    14:00 +3°C° 0 mm 3 m/s 757 mmHg 76%
    15:00 +2°C° 0 mm 3 m/s 757 mmHg 80%
    16:00 +1°C° 0 mm 3 m/s 758 mmHg 84%
    17:00 +1°C° 0 mm 2 m/s 758 mmHg 88%
    18:00 -1°C° 0 mm 2 m/s 759 mmHg 89%
    19:00 -1°C° 0 mm 2 m/s 759 mmHg 90%
    20:00 -2°C° 0 mm 2 m/s 760 mmHg 92%
    21:00 -2°C° 0 mm 2 m/s 760 mmHg 92%
    22:00 -2°C° 0 mm 2 m/s 761 mmHg 92%
    23:00 0°C° 0 mm 1 m/s 761 mmHg 93%

    29 Octombrie, Luni

    Timp Temperatura Precipitaţii Vânt Presiune Umiditate
    00:00 0°C° 0 mm 1 m/s 761 mmHg 92%
    01:00 0°C° 0 mm 1 m/s 762 mmHg 92%
    02:00 0°C° 0 mm 1 m/s 762 mmHg 92%
    03:00 0°C° 0 mm 1 m/s 762 mmHg 92%
    04:00 0°C° 0 mm 1 m/s 762 mmHg 92%
    05:00 0°C° 0 mm 1 m/s 762 mmHg 93%
    06:00 0°C° 0 mm 1 m/s 762 mmHg 92%
    07:00 0°C° 0 mm 1 m/s 763 mmHg 92%
    08:00 0°C° 0 mm 1 m/s 763 mmHg 91%
    09:00 +1°C° 0 mm 1 m/s 763 mmHg 89%
    10:00 +1°C° 0 mm 2 m/s 763 mmHg 86%
    11:00 +1°C° 0 mm 2 m/s 763 mmHg 84%
    12:00 +1°C° 0 mm 2 m/s 763 mmHg 84%
    13:00 +1°C° 0 mm 3 m/s 763 mmHg 83%
    14:00 +1°C° 0 mm 3 m/s 763 mmHg 83%
    15:00 0°C° 0 mm 3 m/s 763 mmHg 85%
    16:00 0°C° 0 mm 3 m/s 763 mmHg 87%
    17:00 0°C° 0 mm 3 m/s 763 mmHg 89%
    18:00 -1°C° 0.1 mm 4 m/s 763 mmHg 89%
    19:00 -1°C° 0.1 mm 4 m/s 762 mmHg 88%
    20:00 -2°C° 0.1 mm 4 m/s 762 mmHg 88%
    21:00 -2°C° 0.2 mm 4 m/s 762 mmHg 88%
    22:00 -2°C° 0.2 mm 5 m/s 762 mmHg 88%
    23:00 -2°C° 0.2 mm 5 m/s 761 mmHg 88%
    Arată mai mult